Location: Entraigues
(45.8900°N, 3.2604°E)
Time: 06:31:34
(UTC+00:00)

Daily predictions for brighter satellites

Satellite Brightness Start Highest point End
(mag) Time Altitude Azimuth Time Altitude Azimuth Time Altitude Azimuth
Cosmos 1943 Rocket 3.2 18:47:09 10° NW 18:52:29 49° WSW 18:57:50 10° S
H-2A R/B 2.2 18:49:55 10° SSE 18:54:59 56° ENE 18:59:55 10° N
Cosmos 1461 3.9 18:52:49 10° NNW 18:57:03 38° NE 19:01:24 10° ESE
Resurs 01 Rocket 3.4 18:55:12 10° E 18:57:55 16° ENE 19:00:38 10° NNE
Cosmos 2228 3.4 18:55:54 10° SSE 18:59:57 42° E 19:04:05 10° NNE
Nadezhda 1 Rocket 4.4 18:54:09 10° SSE 19:00:06 43° E 19:06:01 10° NNE
ATLAS 2AS CENTAUR R/B 3.0 18:53:03 10° NW 19:00:43 68° NE 19:07:41 10° SE
Cosmos 2251 Rocket 4.2 18:56:36 10° SSW 19:01:55 63° WNW 19:07:18 10° NNE
SeaSat 1 2.6 18:57:35 10° NNE 19:02:33 81° WNW 19:07:29 10° SSW
CZ-2C R/B 3.0 18:59:01 10° SSE 19:03:46 59° ENE 19:08:28 10° N
Cosmos 2154 Rocket 4.4 18:58:32 10° N 19:04:39 46° ENE 19:10:41 10° SSE
HJ-1C 4.0 19:01:22 10° S 19:04:41 60° W 19:08:02 10° NNW
Cosmos 2369 Rocket 3.1 19:00:28 10° NW 19:05:57 51° WSW 19:11:23 10° S
USA 186 1.9 19:03:50 10° SSE 19:07:04 55° ENE 19:10:11 10° N
Meteor 1-21 Rocket 4.5 19:01:35 10° NNW 19:07:08 74° W 19:12:39 10° S
Cosmos 1758 Rocket 3.5 19:02:48 10° N 19:07:10 82° E 19:11:28 10° S
Ariane Rocket 3.0 19:04:58 10° SSE 19:10:02 87° ENE 19:15:08 10° NNW
BREEZE M DEB (TANK) 4.4 18:57:29 10° SW 19:10:27 53° SSE 19:14:23 10° ENE
Cosmos 1140 Rocket 4.1 19:06:05 10° SSE 19:10:43 34° ESE 19:15:20 10° NE
SL-4 R/B 1.7 19:08:48 10° WSW 19:12:12 72° NNW 19:15:38 10° ENE
Cosmos 1953 Rocket 3.7 19:10:49 10° N 19:15:15 57° ENE 19:19:40 10° SSE
Cosmos 1606 Rocket 3.6 19:10:53 10° S 19:15:16 67° E 19:19:43 10° NNE
Cosmos 1703 3.3 19:12:12 10° N 19:16:10 63° E 19:20:05 10° SSE
Cosmos 1340 Rocket 3.5 19:12:58 10° SSE 19:16:39 34° E 19:20:18 10° NNE
STARLINK-1234 3.6 19:15:58 10° NW 19:18:58 43° NNE 19:21:18 15° E
STARLINK-1209 3.5 19:16:31 10° NW 19:19:31 45° NNE 19:21:48 15° E
IRIDIUM 104 4.5 19:14:29 10° N 19:19:44 81° W 19:24:56 10° S
STARLINK-1233 3.9 19:16:50 10° NW 19:19:48 37° NNE 19:22:12 14° E
Cosmos 1328 3.8 19:15:51 10° N 19:19:51 67° E 19:23:49 10° SSE
STARLINK-1212 3.9 19:17:18 10° NW 19:20:15 37° NNE 19:22:37 14° E
MOS 1 4.3 19:14:40 10° SSE 19:20:19 81° ENE 19:26:01 10° NNW
STARLINK-1105 3.9 19:17:43 10° NW 19:20:42 37° NNE 19:23:04 14° E
Cosmos 614 Rocket 3.9 19:15:33 10° S 19:20:44 68° ESE 19:25:55 10° NNE
Cosmos 1190 Rocket 4.2 19:15:44 10° S 19:20:49 48° ESE 19:25:53 10° NNE
STARLINK-1206 3.9 19:18:13 10° NW 19:21:10 37° NNE 19:23:29 14° E
STARLINK-1247 3.9 19:18:40 10° NW 19:21:38 37° NNE 19:23:55 15° E
STARLINK-1227 3.9 19:19:05 10° NW 19:22:03 38° NNE 19:24:21 15° E
STARLINK-1218 3.8 19:19:35 10° NW 19:22:32 37° NNE 19:24:47 15° E
STARLINK-1226 3.8 19:20:01 10° NW 19:22:58 38° NNE 19:25:13 15° E
Cosmos 1908 3.2 19:19:24 10° S 19:23:13 63° E 19:27:05 10° NNE
STARLINK-1254 3.8 19:20:26 10° NW 19:23:25 38° NNE 19:25:39 15° E
STARLINK-1215 3.8 19:20:56 10° NW 19:23:53 38° NNE 19:26:05 16° E
ERBS 4.3 19:21:45 10° NNW 19:24:19 20° NNE 19:26:52 10° ENE
STARLINK-1231 3.8 19:21:22 10° NW 19:24:20 38° NNE 19:26:31 16° E
Cosmos 2074 Rocket 4.2 19:18:45 10° N 19:25:04 82° W 19:31:22 10° S
STARLINK-1232 3.8 19:22:17 10° NW 19:25:14 39° NNE 19:27:23 16° E
STARLINK-1217 3.8 19:22:43 10° NW 19:25:42 39° NNE 19:27:50 16° E
STARLINK-1208 3.8 19:23:08 10° NW 19:26:08 39° NNE 19:28:16 16° E
STARLINK-1229 3.8 19:23:37 10° NW 19:26:36 39° NNE 19:28:41 17° E
STARLINK-1271 3.7 19:24:04 10° NW 19:27:03 40° NNE 19:29:08 17° E
STARLINK-1270 3.7 19:24:32 10° NW 19:27:31 40° NNE 19:29:34 17° E
STARLINK-1154 3.7 19:24:58 10° NW 19:27:57 40° NNE 19:29:59 17° E
APEX 4.3 19:22:17 10° NNW 19:28:50 83° ENE 19:33:59 11° SSE
STARLINK-1197 3.7 19:25:53 10° NW 19:28:53 41° NNE 19:30:51 18° E
Cosmos 1726 3.1 19:25:17 10° SSW 19:28:55 51° WNW 19:32:35 10° N
STARLINK-1189 3.7 19:26:19 10° NW 19:29:19 41° NNE 19:31:17 18° E
STARLINK-1198 3.7 19:26:47 10° NW 19:29:47 41° NNE 19:31:44 18° E
STARLINK-1188 3.7 19:27:13 10° NW 19:30:13 41° NNE 19:32:09 18° E
STARLINK-1235 3.4 19:27:51 10° NW 19:30:56 50° NNE 19:32:50 20° E
STARLINK-1187 3.5 19:28:16 10° NW 19:31:20 46° NNE 19:33:15 20° E
Cosmos 1943 4.0 19:25:57 10° SW 19:31:31 57° WNW 19:37:09 10° NNE
STARLINK-67 2.3 19:29:30 10° WNW 19:32:04 83° NNE 19:33:19 26° ESE
STARLINK-1199 3.6 19:29:09 10° NW 19:32:11 43° NNE 19:34:04 19° E
STARLINK-1191 3.6 19:29:37 10° NW 19:32:38 43° NNE 19:34:30 20° E
SL-24 R/B 4.0 19:28:55 10° NNE 19:32:49 48° E 19:36:24 10° S
STARLINK-1210 3.6 19:30:04 10° NW 19:33:05 43° NNE 19:34:56 20° E
STARLINK-1221 3.6 19:30:31 10° NW 19:33:33 43° NNE 19:35:23 20° E
Cosmos 1656 Rocket 4.1 19:28:10 10° NNW 19:33:45 63° WSW 19:39:13 10° S
DMSP B5D2-2 4.4 19:28:59 10° NNE 19:33:57 42° E 19:38:54 10° SSE
STARLINK-1219 3.6 19:30:57 10° NW 19:34:00 44° NNE 19:35:48 20° E
STARLINK-1222 3.6 19:31:25 10° NW 19:34:26 44° NNE 19:36:14 21° E
STARLINK-1211 3.6 19:31:52 10° NW 19:34:54 44° NNE 19:36:41 21° E
Abrixas rocket 2.0 19:32:15 10° WNW 19:35:12 69° NNE 19:36:50 24° E
STARLINK-1214 3.6 19:32:19 10° NW 19:35:21 45° NNE 19:37:06 21° E
STARLINK-1245 3.5 19:32:48 10° NW 19:35:49 45° NNE 19:37:31 21° E
STARLINK-1238 3.5 19:33:12 10° NW 19:36:16 45° NNE 19:37:59 22° E
STARLINK-29 2.9 19:33:40 10° SW 19:36:49 60° SE 19:39:27 14° ENE
BREEZE-M DEB (TANK) 3.4 19:30:31 10° WNW 19:36:55 85° NNE 19:38:39 23° ESE
STARLINK-1205 3.5 19:34:09 10° NW 19:37:11 45° NNE 19:38:50 22° E
STARLINK-1204 3.5 19:34:36 10° NW 19:37:38 46° NNE 19:39:15 23° E
MetOp-A 4.2 19:34:46 10° SSE 19:40:03 66° ENE 19:45:23 10° N
STARLINK-60 3.4 19:38:31 10° WSW 19:41:46 63° NNW 19:45:02 10° NE
Cosmos 1610 Rocket 4.5 19:35:46 10° N 19:41:59 89° E 19:48:07 10° S
CZ-2C R/B 2.9 19:38:18 10° NNE 19:43:14 43° E 19:48:11 10° S
Cosmos 407 Rocket 3.5 19:42:14 10° SSW 19:47:23 87° WNW 19:52:33 10° NNE
ARGOS 3.6 19:43:14 10° S 19:48:34 62° W 19:53:54 10° NNW
Cosmos 676 Rocket 4.1 19:44:41 10° S 19:49:47 52° ESE 19:54:53 10° NNE
Meteor 1-11 4.3 19:45:19 10° NNW 19:51:05 82° W 19:56:45 10° S
Cosmos 1295 Rocket 4.5 19:48:31 10° N 19:54:52 83° E 20:01:13 10° S
STARLINK-1200 4.4 19:51:38 10° NW 19:55:37 42° NNE 19:57:49 23° ENE
SL-24 R/B - RUBIN 2 4.4 19:51:57 10° SW 19:57:34 80° NW 20:03:57 10° NE
SPOT 3 Rocket 3.6 19:53:40 10° SSE 19:58:53 82° WSW 20:04:07 10° NNW
CZ-2C R/B 3.7 19:54:37 10° NNE 19:59:22 87° W 20:03:58 10° SSW
STARLINK-1192 4.4 19:56:37 10° NW 20:00:37 44° NNE 20:02:36 25° ENE
Resurs 1-3 3.5 19:58:05 18° SSE 20:01:23 88° ENE 20:05:47 10° NNW
STARLINK-1201 3.0 20:02:19 10° NW 20:05:36 70° NNE 20:06:16 50° E
STARLINK-1244 4.3 20:01:36 10° NW 20:05:37 46° NNE 20:07:23 28° ENE
COSMOS 2455 2.8 19:59:47 10° NNW 20:05:51 88° ENE 20:09:32 25° SSE
STARLINK-1138 4.2 20:06:34 10° NW 20:10:37 49° NNE 20:12:10 32° ENE
STARLINK-1228 2.7 20:08:32 10° WNW 20:11:29 66° SW 20:11:37 65° SSW
Cosmos 1954 Rocket 3.9 20:06:51 10° SSW 20:12:05 77° ESE 20:17:19 10° NNE
FALCON 9 DEB 3.2 20:09:05 10° WSW 20:12:35 79° NNW 20:14:16 28° NE
MOS 1 Rocket 3.6 20:07:08 10° NNE 20:12:35 84° ESE 20:18:02 10° SSW
IGS 5A 4.5 20:13:40 28° ENE 20:13:54 28° ENE 20:17:29 10° N
Cosmos 1980 Rocket 4.2 20:11:51 10° N 20:14:59 15° NE 20:17:17 12° ENE
STARLINK-1143 4.1 20:11:32 10° NW 20:15:36 51° NNE 20:16:56 35° ENE
STARLINK-52 3.1 20:14:05 10° WSW 20:17:17 72° NNW 20:18:10 43° NE
Cosmos 1892 3.6 20:13:46 10° N 20:17:06 32° ENE 20:17:06 32° ENE
Cosmos 2058 Rocket 3.9 20:13:10 10° SSW 20:17:35 54° WNW 20:22:01 10° N
ATLAS CENTAUR R/B 3.5 20:16:25 10° N 20:18:27 14° NNE 20:19:27 13° NE
NOSS 3-4 (A) 4.5 20:12:31 10° NW 20:19:20 52° WSW 20:25:15 17° S
NOSS 3-4 (C) 4.5 20:12:37 10° NW 20:19:27 53° WSW 20:25:20 17° S
BREEZE M DEB (TANK) 2.9 20:17:18 10° SW 20:20:32 61° SE 20:29:42 10° ENE
STARLINK-1241 4.0 20:16:33 10° NW 20:20:38 54° NNE 20:21:45 40° ENE
SPOT 1/Viking Rocket 4.2 20:21:21 33° E 20:22:32 37° ENE 20:27:20 10° N
ATLAS 5 CENTAUR R/B 2.4 20:19:22 10° WSW 20:23:27 51° NW 20:28:06 10° NNE
Cosmos 2341 Rocket 4.1 20:17:41 10° N 20:24:07 82° W 20:29:06 18° S
Cosmos 1825 4.3 20:22:01 10° NNE 20:23:21 15° NE 20:23:21 15° NE
CZ-4C R/B 4.1 20:18:51 10° NNW 20:24:43 29° NNE 20:29:17 17° ENE
STARLINK-1239 3.9 20:21:30 10° NW 20:25:36 57° NNE 20:26:30 45° ENE
Cosmos 1763 Rocket 3.8 20:24:58 10° NNW 20:29:58 46° ENE 20:30:58 41° E
STARLINK-1240 3.8 20:26:29 10° NW 20:30:37 61° NNE 20:31:18 51° ENE
Cosmos 921 Rocket 4.0 20:28:03 10° NNW 20:32:00 41° WSW 20:34:07 23° SSW
Resurs 01 Rocket 2.0 20:31:53 30° S 20:33:55 61° W 20:38:19 10° NNW
H-2A R/B 4.4 20:30:57 10° SW 20:34:43 20° W 20:38:28 10° NW
STARLINK-1216 3.7 20:31:28 10° NW 20:35:36 65° NNE 20:36:05 58° ENE
Cosmos 2218 Rocket 3.9 20:30:37 10° N 20:36:52 79° E 20:39:40 35° SSE
Cosmos 1300 3.5 20:35:18 19° SSW 20:37:49 51° WNW 20:41:34 10° N
Meteor 2-12 Rocket 4.4 20:32:41 10° N 20:38:44 62° ENE 20:40:31 44° SE
STARLINK-1237 3.6 20:36:25 10° WNW 20:40:34 69° NNE 20:40:50 66° ENE
Cosmos 1174 4.1 20:36:33 10° NNW 20:40:44 72° NE 20:41:25 61° ESE
Iridium 4 Rocket 2.9 20:37:49 10° N 20:41:54 67° ENE 20:41:54 67° ENE
Landsat 7 3.8 20:42:03 57° ESE 20:42:34 60° ENE 20:47:16 10° N
USA 234 3.2 20:37:27 10° ENE 20:43:53 57° SE 20:50:17 10° SSW
In-Cosmos 22 Rocket 4.2 20:39:27 10° NNW 20:45:20 87° W 20:47:33 40° S
Cosmos 2082 Rocket 4.4 20:49:07 10° ENE 20:49:07 10° ENE 20:49:10 10° ENE
STARLINK-1202 3.6 20:41:26 10° WNW 20:45:34 73° NNE 20:45:39 73° NE
SAR-Lupe-2 3.7 20:42:47 10° N 20:46:11 71° NW 20:46:11 71° NW
Cosmos 1812 Rocket 3.4 20:46:09 66° S 20:46:45 89° WNW 20:51:07 10° N
Cosmos 220 Rocket 4.0 20:43:44 10° NNW 20:48:04 74° WSW 20:48:32 66° SSW
USA 245 4.3 20:46:41 45° SSE 20:48:40 85° ENE 20:55:07 10° NNW
SL-8 Rocket 4.2 20:44:48 10° NNW 20:51:06 71° W 20:54:31 29° S
ATLAS 2AS CENTAUR R/B 4.2 20:44:50 10° NW 20:51:06 30° WSW 20:55:53 14° SSW
SL-4 R/B 3.1 20:49:01 10° WNW 20:52:08 31° N 20:52:28 30° N
RESURS DK-1 3.3 20:48:20 10° NNW 20:51:45 38° NE 20:51:45 38° NE
Cosmos 2181 Rocket 4.1 20:46:48 12° SSW 20:52:39 73° W 20:58:51 10° N
Cosmos 864 Rocket 4.4 20:46:57 10° N 20:53:11 87° W 20:55:28 42° S
Cosmos 1833 Rocket 4.1 20:56:29 23° ENE 20:56:29 23° ENE 20:58:57 10° NE
Cosmos 2058 2.9 20:49:55 10° NNW 20:54:02 75° W 20:54:05 75° WSW
MetOp-B 4.3 20:53:18 42° S 20:55:05 70° WSW 21:00:28 10° NNW
STARLINK-1246 3.7 20:51:22 10° WNW 20:55:12 74° NW 20:55:12 74° NW
Meteor 2-10 Rocket 3.9 20:58:38 48° ENE 20:58:38 48° ENE 21:03:16 10° NNE
USA 32 4.1 20:53:36 10° N 20:58:47 59° E 20:58:48 59° E
STARLINK-1203 3.8 20:55:29 10° WNW 20:59:14 70° WNW 20:59:14 70° WNW
Cosmos 2151 3.8 20:55:37 10° N 20:58:42 40° NNE 20:58:42 40° NNE
STARLINK-1224 3.8 20:56:21 10° WNW 21:00:00 67° NW 21:00:00 67° NW
Spot 2 Rocket 3.6 20:59:40 52° SSW 21:00:48 71° WSW 21:05:55 10° NNW
ERBS 3.8 20:57:39 10° NW 20:59:49 37° NW 20:59:49 37° NW
Cosmos 1850 Rocket 3.8 21:02:16 63° SSW 21:03:07 86° ESE 21:08:19 10° NNE
BREEZE-M DEB (TANK) 4.2 21:00:56 10° WNW 21:02:12 19° NW 21:02:12 19° NW
Cosmos 2366 rocket 4.1 20:58:30 10° NNW 21:04:37 69° W 21:06:59 39° SSW
STARLINK-1225 4.0 21:01:21 10° WNW 21:04:47 60° WNW 21:04:47 60° WNW
Cosmos 841 Rocket 3.7 21:03:05 10° NNW 21:08:12 55° ENE 21:08:12 55° ENE
COSMOS 2406 3.0 21:08:16 71° SE 21:08:25 72° ESE 21:14:07 10° NNE
STARLINK-1230 4.3 21:06:20 10° WNW 21:09:34 53° WNW 21:09:34 53° WNW
Cosmos 1076 Rocket 4.2 21:06:43 10° NNW 21:10:51 48° W 21:11:04 48° WSW
Cosmos 1408 4.1 21:09:39 10° N 21:11:46 33° N 21:11:46 33° N
STARLINK-1243 4.5 21:11:18 10° WNW 21:14:20 47° WNW 21:14:20 47° WNW
Nadezhda 3 Rocket 4.0 21:15:55 60° E 21:16:01 61° E 21:22:11 10° NNE
Cosmos 468 Rocket 4.3 21:14:57 10° NNW 21:20:00 57° WSW 21:20:19 56° WSW
SPOT 5 3.3 21:22:33 49° N 21:22:33 49° N 21:25:48 10° N
CZ-2C R/B 4.5 21:19:00 10° N 21:23:20 28° WNW 21:27:40 10° WSW
Terra 2.4 21:25:36 49° NNE 21:25:36 49° NNE 21:29:20 10° N
ERS-1 Rocket 3.0 21:27:10 76° WNW 21:27:10 76° WNW 21:31:55 10° NNW
Cosmos 2369 3.8 21:21:52 10° NNW 21:27:19 66° NE 21:27:19 66° NE
Cosmos 1570 Rocket 4.0 21:23:20 10° NNW 21:28:26 80° NW 21:28:26 80° NW
Cosmos 1697 Rocket 2.7 21:24:40 10° NNW 21:30:07 70° NE 21:30:07 70° NE
Cosmos-2242 4.1 21:33:27 41° N 21:33:27 41° N 21:36:24 10° N
Cosmos 489 Rocket 4.4 21:31:16 10° NNW 21:37:28 74° WSW 21:37:49 72° SW
Cosmos 2239 Rocket 4.4 21:34:40 10° N 21:40:56 83° ENE 21:40:56 83° ENE
Cosmos 1821 Rocket 3.9 21:39:16 10° N 21:45:42 81° W 21:45:57 79° SW
Cosmos 1455 4.4 21:48:16 24° NNW 21:48:16 24° NNW 21:50:09 10° N
Cosmos 1934 Rocket 4.1 21:42:21 10° N 21:48:02 64° NE 21:48:02 64° NE
SL-16 R/B 3.9 21:45:41 10° N 21:50:04 22° NE 21:50:12 22° NE
Cosmos 1656 4.4 21:47:29 10° NW 21:52:36 46° W 21:52:36 46° W
Cosmos 2322 Rocket 3.9 21:53:28 10° N 21:57:45 21° NE 21:57:48 21° NE
ATLAS CENTAUR R/B 3.6 21:54:12 10° NW 21:55:38 21° NNW 21:55:38 21° NNW
Mayak 1.2 21:55:23 10° NNE 21:56:22 17° NNE 21:56:22 17° NNE
Cosmos 1980 Rocket 2.7 21:54:28 10° NNW 21:59:03 55° N 21:59:03 55° N
Meteor 2-3 Rocket 4.1 21:58:27 10° N 22:03:11 62° NNW 22:03:11 62° NNW
Cosmos 1605 Rocket 4.4 21:58:55 10° N 22:03:58 52° NE 22:03:58 52° NE
CZ-4C R/B 2.8 22:07:04 10° NW 22:14:17 82° NE 22:14:28 81° ENE
USA 234 3.8 22:20:32 10° NE 22:26:54 56° NNW 22:33:16 10° WSW
Cosmos 2082 Rocket 3.2 22:30:55 41° NNE 22:30:55 41° NNE 22:34:35 10° NNE
Cosmos 1833 Rocket 3.7 22:38:06 42° NW 22:38:06 42° NW 22:43:07 10° NNE
Cosmos 2344 4.3 22:36:36 10° NW 22:46:19 87° SW 22:48:33 66° SSE
Terra 4.4 23:04:29 14° WNW 23:04:29 14° WNW 23:05:48 10° NW
Mayak 1.8 23:32:30 10° NNW 23:32:56 11° NW 23:32:56 11° NW
SL-16 R/B 3.7 23:29:07 10° NNW 23:32:03 32° NW 23:32:03 32° NW
Cosmos 2360 Rocket 3.6 23:31:22 10° NNW 23:34:45 35° N 23:34:45 35° N
Cosmos 2322 Rocket 3.7 23:36:47 10° NNW 23:39:36 31° NNW 23:39:36 31° NNW
